TimeEDT,TemperatureF,Dew PointF,Humidity,Sea Level PressureIn,VisibilityMPH,Wind Direction,Wind SpeedMPH,Gust SpeedMPH,PrecipitationIn,Events,Conditions,WindDirDegrees,DateUTC
12:15 AM,66.6,61.3,83,29.97,10.0,South,4.6,-,N/A,,Clear,180,2013-06-17 04:15:00
12:35 AM,66.0,61.3,85,29.96,10.0,South,4.6,-,N/A,,Clear,180,2013-06-17 04:35:00
12:55 AM,66.0,61.5,85,29.96,10.0,South,5.8,-,N/A,,Clear,190,2013-06-17 04:55:00
1:15 AM,66.4,61.9,85,29.97,7.0,SSW,4.6,-,N/A,,Clear,200,2013-06-17 05:15:00
1:35 AM,66.2,61.7,85,29.97,7.0,SSW,4.6,-,N/A,,Mostly Cloudy,200,2013-06-17 05:35:00
1:55 AM,66.6,62.2,86,29.97,7.0,South,5.8,-,N/A,,Mostly Cloudy,190,2013-06-17 05:55:00
2:15 AM,66.4,62.1,86,29.97,5.0,SSW,5.8,-,N/A,,Scattered Clouds,200,2013-06-17 06:15:00
2:35 AM,66.4,62.2,86,29.97,4.0,South,4.6,-,N/A,,Mostly Cloudy,190,2013-06-17 06:35:00
2:55 AM,66.7,62.6,86,29.97,4.0,South,4.6,-,N/A,,Overcast,190,2013-06-17 06:55:00
3:15 AM,66.7,62.6,86,29.97,4.0,SSW,5.8,-,N/A,,Overcast,200,2013-06-17 07:15:00
3:35 AM,66.7,62.6,86,29.96,4.0,South,5.8,-,N/A,,Overcast,190,2013-06-17 07:35:00
3:55 AM,66.6,62.6,87,29.96,4.0,SSW,5.8,-,N/A,,Overcast,200,2013-06-17 07:55:00
4:15 AM,66.4,62.4,87,29.97,3.0,SSW,5.8,-,N/A,,Mostly Cloudy,210,2013-06-17 08:15:00
4:35 AM,66.2,62.2,87,29.97,3.0,SSW,5.8,-,N/A,,Scattered Clouds,210,2013-06-17 08:35:00
4:55 AM,65.8,62.1,88,29.97,2.0,South,5.8,-,N/A,,Mostly Cloudy,190,2013-06-17 08:55:00
5:15 AM,65.8,62.1,88,29.96,1.8,SSW,5.8,-,N/A,,Overcast,200,2013-06-17 09:15:00
5:35 AM,65.8,62.2,88,29.97,1.8,SSW,3.5,-,N/A,,Overcast,200,2013-06-17 09:35:00
5:55 AM,66.2,62.6,88,29.97,2.0,SSW,3.5,-,N/A,,Overcast,200,2013-06-17 09:55:00
6:15 AM,66.6,62.8,88,29.97,1.8,SW,3.5,-,N/A,,Overcast,230,2013-06-17 10:15:00
6:35 AM,66.6,62.8,88,29.98,1.8,Calm,Calm,-,N/A,,Overcast,0,2013-06-17 10:35:00
6:55 AM,66.9,63.0,87,29.98,1.8,South,3.5,-,N/A,,Overcast,190,2013-06-17 10:55:00
7:15 AM,67.1,63.3,88,29.98,1.5,South,3.5,-,N/A,,Overcast,170,2013-06-17 11:15:00
7:35 AM,67.3,63.5,88,29.99,1.8,South,3.5,-,N/A,,Overcast,180,2013-06-17 11:35:00
7:55 AM,67.8,63.7,87,29.99,2.0,South,3.5,-,N/A,,Overcast,180,2013-06-17 11:55:00
8:15 AM,68.2,63.7,85,29.99,2.0,SSW,3.5,-,N/A,,Overcast,200,2013-06-17 12:15:00
8:35 AM,68.2,63.7,85,29.98,2.5,South,3.5,-,N/A,,Haze,170,2013-06-17 12:35:00
8:55 AM,68.4,63.5,84,29.98,2.5,South,4.6,-,N/A,,Haze,170,2013-06-17 12:55:00
9:15 AM,68.7,63.5,83,29.98,3.0,South,4.6,-,N/A,,Haze,180,2013-06-17 13:15:00
9:35 AM,69.1,63.7,83,29.98,2.5,South,3.5,-,N/A,,Haze,170,2013-06-17 13:35:00
9:55 AM,70.3,64.4,81,29.98,3.0,South,3.5,-,N/A,,Haze,180,2013-06-17 13:55:00
10:15 AM,71.4,64.4,78,29.99,4.0,SSW,4.6,-,N/A,,Haze,210,2013-06-17 14:15:00
10:35 AM,71.8,64.8,78,29.99,5.0,Calm,Calm,-,N/A,,Haze,0,2013-06-17 14:35:00
10:55 AM,72.7,65.1,77,29.98,4.0,South,5.8,-,N/A,,Haze,170,2013-06-17 14:55:00
11:15 AM,73.8,65.7,76,29.99,5.0,SSW,4.6,-,N/A,,Haze,210,2013-06-17 15:15:00
11:35 AM,75.0,65.5,72,29.99,7.0,South,4.6,-,N/A,,Overcast,170,2013-06-17 15:35:00
11:55 AM,77.2,66.0,68,29.99,7.0,SSW,4.6,-,N/A,,Mostly Cloudy,200,2013-06-17 15:55:00
12:15 PM,77.9,66.9,69,29.99,7.0,South,3.5,-,N/A,,Mostly Cloudy,180,2013-06-17 16:15:00
12:35 PM,77.9,66.4,68,29.98,10.0,SSW,6.9,-,N/A,,Scattered Clouds,210,2013-06-17 16:35:00
12:55 PM,79.0,66.6,66,29.98,7.0,South,5.8,-,N/A,,Mostly Cloudy,170,2013-06-17 16:55:00
1:15 PM,79.3,66.0,64,29.97,10.0,SSW,6.9,-,N/A,,Mostly Cloudy,210,2013-06-17 17:15:00
1:35 PM,80.2,66.2,62,29.97,10.0,South,6.9,-,N/A,,Mostly Cloudy,180,2013-06-17 17:35:00
1:55 PM,80.8,66.2,61,29.97,10.0,South,4.6,-,N/A,,Mostly Cloudy,180,2013-06-17 17:55:00
2:15 PM,81.3,66.4,60,29.97,10.0,South,10.4,17.3,N/A,,Mostly Cloudy,190,2013-06-17 18:15:00
2:35 PM,81.9,66.6,60,29.96,10.0,South,8.1,-,N/A,,Mostly Cloudy,190,2013-06-17 18:35:00
2:55 PM,82.0,66.6,59,29.96,10.0,SSW,10.4,-,N/A,,Scattered Clouds,200,2013-06-17 18:55:00
3:15 PM,82.4,66.4,58,29.95,10.0,SSW,6.9,-,N/A,,Mostly Cloudy,200,2013-06-17 19:15:00
3:35 PM,82.8,65.8,56,29.94,10.0,SSW,9.2,17.3,N/A,,Scattered Clouds,200,2013-06-17 19:35:00
3:55 PM,82.9,66.2,57,29.93,10.0,South,10.4,-,N/A,,Scattered Clouds,190,2013-06-17 19:55:00
4:15 PM,83.5,65.7,55,29.93,10.0,SW,10.4,-,N/A,,Scattered Clouds,220,2013-06-17 20:15:00
4:35 PM,84.9,63.9,49,29.92,10.0,SW,9.2,-,N/A,,Clear,230,2013-06-17 20:35:00
4:55 PM,85.3,63.0,47,29.91,10.0,West,5.8,-,N/A,,Clear,260,2013-06-17 20:55:00
5:15 PM,85.3,62.2,46,29.90,10.0,WSW,8.1,-,N/A,,Scattered Clouds,240,2013-06-17 21:15:00
5:35 PM,85.5,62.1,45,29.90,10.0,WSW,5.8,-,N/A,,Clear,240,2013-06-17 21:35:00
5:55 PM,85.1,61.7,45,29.90,10.0,SW,5.8,-,N/A,,Clear,220,2013-06-17 21:55:00
6:15 PM,85.1,62.4,46,29.90,10.0,WSW,5.8,-,N/A,,Clear,240,2013-06-17 22:15:00
6:35 PM,84.2,62.2,47,29.90,10.0,Calm,Calm,-,N/A,,Clear,0,2013-06-17 22:35:00
6:55 PM,84.2,62.1,47,29.90,10.0,SW,3.5,-,N/A,,Clear,220,2013-06-17 22:55:00
7:15 PM,84.0,63.0,49,29.90,10.0,WSW,4.6,-,N/A,,Clear,240,2013-06-17 23:15:00
7:35 PM,82.2,63.9,54,29.91,10.0,South,5.8,-,N/A,,Clear,180,2013-06-17 23:35:00
7:55 PM,80.8,64.6,58,29.91,10.0,South,5.8,-,N/A,,Clear,190,2013-06-17 23:55:00
8:15 PM,79.9,64.8,60,29.91,10.0,South,4.6,-,N/A,,Clear,190,2013-06-18 00:15:00
8:35 PM,79.2,64.9,62,29.90,10.0,SSW,4.6,-,N/A,,Clear,200,2013-06-18 00:35:00
8:55 PM,78.8,65.1,63,29.91,10.0,South,3.5,-,N/A,,Clear,180,2013-06-18 00:55:00
9:15 PM,77.7,66.0,67,29.91,10.0,SSE,3.5,-,N/A,,Clear,160,2013-06-18 01:15:00
9:35 PM,77.2,65.7,67,29.91,10.0,Calm,Calm,-,N/A,,Clear,0,2013-06-18 01:35:00
9:55 PM,76.8,66.0,69,29.90,10.0,SSW,3.5,-,N/A,,Clear,200,2013-06-18 01:55:00
10:15 PM,76.1,65.7,70,29.91,10.0,Calm,Calm,-,N/A,,Clear,0,2013-06-18 02:15:00
10:35 PM,75.0,65.5,72,29.92,10.0,ENE,5.8,-,N/A,,Clear,70,2013-06-18 02:35:00
10:55 PM,74.3,64.9,72,29.92,10.0,ENE,3.5,-,N/A,,Clear,70,2013-06-18 02:55:00
11:15 PM,74.1,64.9,73,29.92,10.0,East,4.6,-,N/A,,Clear,80,2013-06-18 03:15:00
11:35 PM,74.3,64.4,71,29.91,10.0,ESE,4.6,-,N/A,,Clear,120,2013-06-18 03:35:00
11:55 PM,73.4,64.4,73,29.91,10.0,Calm,Calm,-,N/A,,Clear,0,2013-06-18 03:55:00